This is the latest recevied weather packets stored in our database for station/object KC1OEK-13. If no packets are shown the sender has not sent any weather packets the latest 10 day(s).
| Time | Temp. | Humidity | Pressure | Rain* | Wind** | Luminosity | Snow |
|---|---|---|---|---|---|---|---|
| 1777557186 | 8.89° C | 99% | 1008.6 hPa | 0 mm | - | 92 W/m² | - |
| 1777556882 | 8.89° C | 99% | 1008.7 hPa | 0 mm | - | 64 W/m² | - |
| 1777556578 | 8.89° C | 99% | 1008.9 hPa | 0 mm | - | 67 W/m² | - |
| 1777556278 | 8.89° C | 99% | 1008.9 hPa | 0 mm | - | 42 W/m² | - |
| 1777555974 | 8.89° C | 99% | 1009 hPa | 0 mm | - | 54 W/m² | - |
| 1777555669 | 8.89° C | 99% | 1009 hPa | 0 mm | - | 49 W/m² | - |
| 1777555366 | 8.89° C | 99% | 1008.8 hPa | 0 mm | - | 45 W/m² | - |
| 1777555062 | 8.89° C | 99% | 1008.7 hPa | 0 mm | - | 54 W/m² | - |
| 1777554760 | 8.89° C | 99% | 1008.9 hPa | 0 mm | - | 36 W/m² | - |
| 1777554457 | 8.89° C | 99% | 1008.9 hPa | 0 mm | - | 36 W/m² | - |
| 1777554153 | 8.89° C | 99% | 1008.9 hPa | 0 mm | - | 67 W/m² | - |
| 1777553851 | 8.89° C | 99% | 1008.9 hPa | 0 mm | - | 83 W/m² | - |
| 1777553547 | 8.89° C | 99% | 1008.9 hPa | 0 mm | - | 82 W/m² | - |
| 1777553242 | 8.33° C | 99% | 1008.9 hPa | 0 mm | - | 73 W/m² | - |
| 1777552939 | 8.89° C | 99% | 1008.9 hPa | 0 mm | - | 42 W/m² | - |
| 1777552633 | 8.89° C | 99% | 1009.1 hPa | 0 mm | - | 35 W/m² | - |
| 1777552331 | 8.89° C | 99% | 1009.4 hPa | 0 mm | - | 38 W/m² | - |
| 1777552027 | 8.89° C | 99% | 1009.4 hPa | 0 mm | - | 39 W/m² | - |
| 1777551724 | 8.89° C | 99% | 1009.3 hPa | 0 mm | - | 50 W/m² | - |
| 1777551421 | 8.89° C | 99% | 1009.3 hPa | 0 mm | - | 50 W/m² | - |
| 1777551118 | 8.89° C | 99% | 1009.4 hPa | 0 mm | - | 46 W/m² | - |
| 1777550816 | 8.89° C | 99% | 1009.4 hPa | 0 mm | - | 29 W/m² | - |
| 1777550511 | 8.89° C | 99% | 1009.5 hPa | 0 mm | - | 34 W/m² | - |
| 1777550207 | 8.89° C | 99% | 1009.5 hPa | 0 mm | - | 46 W/m² | - |
| 1777549904 | 8.89° C | 99% | 1009.4 hPa | 0 mm | - | 38 W/m² | - |
* Rain latest hour (hover to see other rain measurements)
** Current wind speed in m/s (hover to see current wind gust speed)